Weather History for KGOV - July, 2013

Change the Weather History Date:

Friday, July 5, 2013

  Actual Average (KHTL) Record (KHTL)
Temperature  
Mean Temperature 68 °F 67 °F  
Max Temperature 84 °F 80 °F 102 °F (1921)
Min Temperature 53 °F 54 °F 32 °F (1920)
Degree Days  
Heating Degree Days 0 2  
Month to date heating degree days 10  
Since 1 June heating degree days 134  
Since 1 July heating degree days 10  
Cooling Degree Days 4 4  
Month to date cooling degree days 17  
Year to date cooling degree days 92  
Since 1 June cooling degree days 76  
Growing Degree Days 18 (Base 50)    
Moisture  
Dew Point 58 °F    
Average Humidity 72    
Maximum Humidity 100    
Minimum Humidity 37    
Precipitation  
Precipitation 0.00 in 0.08 in 0.91 in (1919)
Month to date precipitation 0.41  
Year to date precipitation 13.37  
Sea Level Pressure  
Sea Level Pressure 30.08 in    
Wind  
Wind Speed 2 mph (SW)    
Max Wind Speed 9 mph    
Max Gust Speed -    
Visibility 8 miles    
Events Fog    
T = Trace of Precipitation, MM = Missing Value Source: NWS Daily Summary

Daily Weather History Graph

Daily Weather History Graph

Search for Another Location

Airport or City:

Trip Planner

Search our weather history database for the weather conditions in past years. The results will help you decide how hot, cold, wet, or windy it might be!

Date:

Astronomy

Jul. 05, 2013 Rise Set
Actual Time 5:59 AM EDT 9:26 PM EDT
Civil Twilight 5:23 AM EDT 10:03 PM EDT
Nautical Twilight 4:35 AM EDT 10:51 PM EDT
Astronomical Twilight 3:33 AM EDT 11:52 PM EDT
Moon 4:01 AM EDT (7/5) 7:18 PM EDT (7/5)
Length of Visible Light 16h 39m
Length of Day
15h 26m
Waning Crescent, 6% of the Moon is Illuminated
Jul 5
Waning Crescent
Jul 8
New
Jul 15
First Quarter
Jul 22
Full
Jul 29
Last Quarter

Hourly Weather History & Observations

Time (EDT) Temp. Heat Index Dew Point Humidity Pressure Visibility Wind Dir Wind Speed Gust Speed Precip Events Conditions
12:15 AM 59.9 °F - 59.9 °F 100% 30.11 in 4.0 mi Calm Calm - N/A   Clear
12:34 AM 58.5 °F - 58.5 °F 100% 30.10 in 4.0 mi Calm Calm - N/A   Clear
12:55 AM 56.1 °F - 56.1 °F 100% 30.10 in 5.0 mi Calm Calm - N/A   Clear
1:15 AM 58.5 °F - 58.5 °F 100% 30.10 in 2.5 mi Calm Calm - N/A   Clear
1:34 AM 55.9 °F - 55.9 °F 100% 30.11 in 5.0 mi Calm Calm - N/A   Clear
1:55 AM 55.4 °F - 55.4 °F 100% 30.10 in 0.5 mi Calm Calm - N/A Fog Fog
2:14 AM 55.9 °F - 55.9 °F 100% 30.10 in 7.0 mi Calm Calm - N/A   Clear
2:35 AM 54.7 °F - 54.7 °F 100% 30.10 in 5.0 mi Calm Calm - N/A   Clear
2:55 AM 54.3 °F - 54.3 °F 100% 30.10 in 7.0 mi Calm Calm - N/A   Clear
3:14 AM 53.6 °F - 53.6 °F 100% 30.10 in 5.0 mi Calm Calm - N/A   Clear
3:35 AM 54.5 °F - 54.5 °F 100% 30.10 in 4.0 mi Calm Calm - N/A   Clear
3:55 AM 53.6 °F - 53.6 °F 100% 30.09 in 0.8 mi Calm Calm - N/A   Mist
4:14 AM 53.6 °F - 53.6 °F 100% 30.09 in 7.0 mi Calm Calm - N/A   Clear
4:35 AM 53.6 °F - 53.6 °F 100% 30.09 in 7.0 mi Calm Calm - N/A   Clear
4:55 AM 53.6 °F - 53.6 °F 100% 30.09 in 5.0 mi Calm Calm - N/A   Clear
5:14 AM 54.5 °F - 54.5 °F 100% 30.09 in 4.0 mi Calm Calm - N/A   Clear
5:35 AM 53.6 °F - 53.6 °F 100% 30.09 in 4.0 mi Calm Calm - N/A   Clear
5:55 AM 53.8 °F - 53.8 °F 100% 30.10 in 5.0 mi NW 3.5 mph - N/A   Clear
6:14 AM 53.6 °F - 53.6 °F 100% 30.10 in 5.0 mi Calm Calm - N/A   Clear
6:35 AM 53.6 °F - 53.6 °F 100% 30.10 in 3.0 mi Calm Calm - N/A   Clear
6:55 AM 55.6 °F - 55.6 °F 100% 30.11 in 3.0 mi Calm Calm - N/A   Clear
7:14 AM 55.8 °F - 55.8 °F 100% 30.11 in 3.0 mi Calm Calm - N/A   Clear
7:35 AM 55.9 °F - 55.9 °F 100% 30.11 in 2.5 mi Calm Calm - N/A   Clear
7:55 AM 58.8 °F - 58.8 °F 100% 30.11 in 5.0 mi Calm Calm - N/A   Clear
8:14 AM 62.6 °F - 61.5 °F 96% 30.11 in 7.0 mi Calm Calm - N/A   Clear
8:35 AM 68.5 °F - 64.9 °F 88% 30.10 in 10.0 mi SW 3.5 mph - N/A   Clear
8:55 AM 70.9 °F - 63.7 °F 78% 30.11 in 7.0 mi West 3.5 mph - N/A   Clear
9:14 AM 73.6 °F - 65.3 °F 75% 30.11 in 10.0 mi WSW 4.6 mph - N/A   Clear
9:35 AM 73.6 °F - 64.4 °F 73% 30.11 in 10.0 mi WSW 5.8 mph - N/A   Clear
9:54 AM 73.6 °F - 62.6 °F 68% 30.12 in 10.0 mi SW 5.8 mph - N/A   Clear
10:15 AM 76.1 °F - 63.3 °F 64% 30.11 in 10.0 mi SW 6.9 mph - N/A   Clear
10:35 AM 76.1 °F - 62.6 °F 63% 30.11 in 10.0 mi SW 4.6 mph - N/A   Clear
10:54 AM 76.3 °F - 60.8 °F 59% 30.11 in 10.0 mi SW 6.9 mph - N/A   Clear
11:15 AM 76.5 °F - 60.3 °F 57% 30.11 in 10.0 mi West 4.6 mph - N/A   Clear
11:35 AM 79.2 °F - 59.5 °F 51% 30.10 in 10.0 mi SSW 4.6 mph - N/A   Clear
11:54 AM 79.0 °F - 58.5 °F 49% 30.11 in 10.0 mi West 4.6 mph - N/A   Clear
12:15 PM 80.6 °F 81.0 °F 58.6 °F 47% 30.11 in 10.0 mi SW 6.9 mph - N/A   Clear
12:35 PM 80.6 °F 80.9 °F 58.3 °F 46% 30.11 in 10.0 mi Calm Calm - N/A   Clear
12:54 PM 81.7 °F 81.5 °F 56.8 °F 43% 30.11 in 10.0 mi West 5.8 mph - N/A   Scattered Clouds
1:15 PM 82.4 °F 82.2 °F 57.7 °F 43% 30.10 in 10.0 mi NW 5.8 mph - N/A   Scattered Clouds
1:35 PM 82.4 °F 81.8 °F 55.9 °F 40% 30.09 in 10.0 mi SW 6.9 mph - N/A   Clear
1:54 PM 82.6 °F 81.7 °F 54.5 °F 38% 30.09 in 10.0 mi South 8.1 mph - N/A   Clear
2:15 PM 82.8 °F 81.7 °F 54.3 °F 37% 30.09 in 10.0 mi SW 3.5 mph - N/A   Clear
2:35 PM 82.4 °F 81.7 °F 55.2 °F 39% 30.08 in 10.0 mi Calm Calm - N/A   Clear
2:54 PM 84.4 °F 83.2 °F 55.6 °F 37% 30.08 in 10.0 mi West 5.8 mph - N/A   Clear
3:15 PM 82.8 °F 82.4 °F 57.2 °F 42% 30.07 in 10.0 mi SSW 3.5 mph - N/A   Mostly Cloudy
3:35 PM 82.9 °F 82.3 °F 56.3 °F 40% 30.07 in 10.0 mi SSW 8.1 mph - N/A   Scattered Clouds
3:54 PM 81.1 °F 81.0 °F 56.1 °F 42% 30.06 in 10.0 mi SW 3.5 mph - N/A   Scattered Clouds
4:15 PM 83.7 °F 83.1 °F 57.6 °F 41% 30.06 in 10.0 mi SSW 9.2 mph - N/A   Mostly Cloudy
4:34 PM 82.8 °F 82.2 °F 56.8 °F 41% 30.05 in 10.0 mi SSW 6.9 mph - N/A   Scattered Clouds
4:55 PM 81.0 °F 81.3 °F 59.0 °F 47% 30.05 in 10.0 mi SSW 8.1 mph - N/A   Scattered Clouds
5:15 PM 81.5 °F 81.7 °F 58.8 °F 46% 30.05 in 10.0 mi SSW 6.9 mph - N/A   Mostly Cloudy
5:34 PM 82.8 °F 82.7 °F 58.8 °F 44% 30.04 in 10.0 mi SSW 6.9 mph - N/A   Scattered Clouds
5:55 PM 82.4 °F 81.8 °F 55.9 °F 40% 30.04 in 10.0 mi SW 9.2 mph - N/A   Clear
6:15 PM 81.9 °F 81.4 °F 56.3 °F 41% 30.03 in 10.0 mi WSW 5.8 mph - N/A   Scattered Clouds
6:34 PM 80.8 °F 81.2 °F 58.6 °F 47% 30.03 in 10.0 mi South 6.9 mph - N/A   Scattered Clouds
6:55 PM 81.1 °F 81.3 °F 57.9 °F 45% 30.03 in 10.0 mi SSW 5.8 mph - N/A   Scattered Clouds
7:15 PM 79.9 °F - 58.3 °F 48% 30.04 in 10.0 mi SSW 6.9 mph - N/A   Clear
7:34 PM 79.9 °F - 59.0 °F 49% 30.04 in 10.0 mi SSW 4.6 mph - N/A   Scattered Clouds
7:55 PM 79.9 °F - 59.2 °F 49% 30.04 in 10.0 mi South 5.8 mph - N/A   Scattered Clouds
8:14 PM 78.8 °F - 59.7 °F 52% 30.04 in 10.0 mi SSW 4.6 mph - N/A   Clear
8:35 PM 77.7 °F - 59.7 °F 54% 30.04 in 10.0 mi SSW 4.6 mph - N/A   Scattered Clouds
8:55 PM 76.5 °F - 59.0 °F 55% 30.04 in 10.0 mi South 4.6 mph - N/A   Scattered Clouds
9:14 PM 76.1 °F - 60.1 °F 57% 30.05 in 10.0 mi SSW 3.5 mph - N/A   Clear
9:35 PM 73.6 °F - 61.9 °F 67% 30.06 in 10.0 mi Calm Calm - N/A   Clear
9:55 PM 70.7 °F - 61.5 °F 73% 30.07 in 10.0 mi Calm Calm - N/A   Clear
10:14 PM 68.5 °F - 63.5 °F 84% 30.08 in 7.0 mi Calm Calm - N/A   Clear
10:35 PM 68.5 °F - 64.2 °F 86% 30.08 in 10.0 mi Calm Calm - N/A   Clear
10:55 PM 66.9 °F - 62.8 °F 87% 30.08 in 10.0 mi Calm Calm - N/A   Clear
11:14 PM 63.5 °F - 62.8 °F 97% 30.08 in 7.0 mi Calm Calm - N/A   Clear
11:35 PM 63.1 °F - 62.2 °F 97% 30.08 in 7.0 mi Calm Calm - N/A   Clear
11:55 PM 61.2 °F - 60.6 °F 98% 30.08 in 10.0 mi Calm Calm - N/A   Clear